Location: *
(50.8160°S, 176.0219°W)
Time: 23:26:40
(UTC+00:00)

Cosmos 1943 - Pass Details

Date: 19 May 2026
Orbit: 833 x 847 km, 71.0° (Epoch: 11 June)

Event Time Altitude Azimuth Distance (km) Brightness Sun altitude
Exits shadow 17:43:30 21° 244° (WSW) 1,821 4.3 -14.8°
Maximum altitude 17:45:08 24° 219° (SW) 1,702 4.3 -14.6°
Drops below altitude 10° 17:49:45 10° 165° (SSE) 2,503 5.7 -13.9°
Sets 17:52:43 0° 151° (SSE) 3,445 6.6 -13.4°
